Regional Weather Roundup
Issued by NWS Sterling, VA

Home | Current Version | Previous Version | Graphics & Text | Print | Product List | Glossary On
Versions: 1 2 3 4 5 6 7 8 9 10 11 12 13 14 15 16 17 18 19 20 21 22 23 24 25 26 27 28 29 30 31 32 33 34 35 36 37 38 39 40 41 42 43 44 45 46 47 48 49 50
425
ASUS41 KLWX 250411
RWRLWX

REGIONAL WEATHER ROUNDUP
NATIONAL WEATHER SERVICE BALTIMORE MD/WASHINGTON DC
1200 AM EDT MON JUL 25 2016

Note: "FAIR" indicates few or no clouds below 12,000 feet
with no significant weather and/or obstructions to visibility.
 TC=TEMPERATURE CELSIUS

 * =Non NWS site. Station does not report precipitation (e.g. rain,
    snow, etc.), thunder, or fog.

DCZ001-MDZ009-015-VAZ040>042-051-053>054-250500-
WASHINGTON METRO

CITY           SKY/WX    TMP DP  RH WIND       PRES   REMARKS
WASHINGTON NAT TSTM      86  74  67 N3        29.97R HX  94
DULLES         FAIR      79  73  82 SE3       29.97S
ANDREWS AFB    CLOUDY    82  77  83 S3        29.96S HX  90
QUANTICO       MOCLDY    86  76  71 S6        29.97S HX  96
COLLEGE PARK*  FAIR      77  73  88 CALM      29.97S
LEESBURG*      FAIR      82  75  78 N3        30.00R
MANASSAS*      MOCLDY    81  73  78 CALM      29.98S
GAITHERSBURG*  PTCLDY    77  70  78 CALM      30.03S

$$

MDZ006>007-011-014-250500-
BALTIMORE METRO

CITY           SKY/WX    TMP DP  RH WIND       PRES   REMARKS
BWI AIRPORT    CLOUDY    80  72  76 CALM      29.97S
MD SCIENCE CTR   N/A     85  71  63 MISG      29.97S HX  90
MARTIN STATE   CLOUDY    84  81  89 CALM      29.98R HX  98
ANNAPOLIS      CLOUDY    86  79  79 S6        29.96S HX  99
FORT MEADE*    CLOUDY    73  72  94 CALM      29.99F

$$

MDZ012-015-019>023-250500-
MARYLAND EASTERN SHORE

CITY           SKY/WX    TMP DP  RH WIND       PRES   REMARKS
OCEAN CITY     PTCLDY    78  77  96 VRB3      29.99F
SALISBURY      PTCLDY    77  75  93 CALM      29.99F
BAY BRIDGE AP* CLOUDY    86  75  70 S8        29.96S HX  95
CAMBRIDGE*     CLOUDY    77  73  88 SE5       29.97F
EASTON*        CLOUDY    82  75  80 S7        30.00F

$$

MDZ017>025-250500-
SOUTHERN MARYLAND

CITY           SKY/WX    TMP DP  RH WIND       PRES   REMARKS
PATUXENT RIVER CLOUDY    84  78  82 S7        29.97F HX  95
ST INIGOES     CLOUDY    85  79  82 SE8       29.97F HX  98
LEONARDTOWN*   CLOUDY    82  77  83 SE5       29.99S HX  91

$$

MDZ003>005-250500-
NORTH CENTRAL MARYLAND

CITY           SKY/WX    TMP DP  RH WIND       PRES   REMARKS
FREDERICK*     PTCLDY    77  73  88 CALM      30.01S
HAGERSTOWN APT CLOUDY    79  71  76 NW5       30.00S

$$

MDZ501>502-250500-
WESTERN MARYLAND

CITY           SKY/WX    TMP DP  RH WIND       PRES   REMARKS
OAKLAND*       CLOUDY    72  68  88 CALM      30.15S
CUMBERLAND*    MOCLDY    77  72  83 CALM      30.06R

$$

VAZ025>031-250500-
SHENANDOAH VALLEY

CITY           SKY/WX    TMP DP  RH WIND       PRES   REMARKS
WINCHESTER*    FAIR      77  72  83 SW5       30.01R
FRONT ROYAL*   FAIR      77  72  83 S3        30.00S
LURAY*         FAIR      75  73  94 CALM      30.03R
NEW MARKET*    FAIR     N/A N/A N/A CALM      30.02R
STAUNTON*      FAIR      74  71  89 CALM      30.07R
WAYNESBORO*    FAIR      76  71  84 CALM      30.07S

$$

WVZ021-048>050-054>055-250500-
EASTERN WEST VIRGINIA PANHANDLE

CITY           SKY/WX    TMP DP  RH WIND       PRES   REMARKS
MARTINSBURG    FAIR      76  72  87 CALM      29.99S
PETERSBURG*    FAIR      77  73  86 CALM      30.03R

$$

VAZ036>039-050-250500-
CENTRAL FOOTHILLS

CITY           SKY/WX    TMP DP  RH WIND       PRES   REMARKS
CHARLOTTESVILL FAIR      81  73  76 N5        30.00R
CULPEPER*      FAIR      79  76  92 CALM      29.99S
ORANGE*          N/A     81  77  89 CALM      30.00F
GORDONSVILLE*  FAIR      78  77  95 CALM      29.98S
WARRENTON*     FAIR      79  72  78 CALM      29.98S

$$

VAZ055>057-250500-
NORTH AND CENTRAL PIEDMONT

CITY           SKY/WX    TMP DP  RH WIND       PRES   REMARKS
FREDERICKSBRG* FAIR      83  77  82 CALM      29.96S HX  92
STAFFORD*      FAIR      77  74  92 CALM      30.00F

$$

NCZ024-NYZ072-PAZ021-071-VAZ022-071-250500-
OTHER REGIONAL OBSERVATIONS

CITY           SKY/WX    TMP DP  RH WIND       PRES   REMARKS
NEW YORK CITY  PTCLDY    81  67  62 MISG      29.99F
PHILADELPHIA   CLOUDY    82  63  52 SW6       29.98F
PITTSBURGH     MOCLDY    73  71  93 S3        30.02S
ROANOKE        FAIR      78  70  76 W3        30.07S
RICHMOND       FAIR      82  74  76 SW9       29.98F
RALEIGH        PTCLDY    83  73  72 S6        30.04S

$$

ANZ530>537-250500-
MARINE OBSERVATIONS

STATION/POSITION TIME  TEMP    WIND        PRES
                       AIR SEA DIR/SP/G
                 (UTC) (F)     (DEG/KT/KT) (MB)
THOMAS PT LIGHT  0400   85 83  170/ 16/ 17 1015.6F
BALT KEY BRIDGE  0336   84     210/ 10/ 12 1014.4S
COVE POINT       0336   84     180/ 15/ 16 1015.3F
LEWISETTA        0336   84 88  190/  7/  9 1014.7F
SOLOMONS ISLAND  0336   84 86  160/  8/ 10   N/A
PINEY POINT      0348          180/ 11/ 12   N/A

$$





USA.gov is the U.S. government's official web portal to all federal, state and local government web resources and services.